Location: Altenhof
(50.2418°N, 10.8789°E)
Time: 18:05:53
(UTC+00:00)

USA 215 - Pass Details

Date: 18 February 2020
Orbit: 1098 x 1110 km, 123.0° (Epoch: 08 March)

Event Time Altitude Azimuth Distance (km) Brightness Sun altitude
Rises 02:27:53 0° 58° (ENE) 3,925 7.1 -37.3°
Reaches altitude 10° 02:30:22 10° 58° (ENE) 2,967 6.3 -36.9°
Enters shadow 02:35:33 59° 51° (NE) 1,259 3.6 -36.2°
